Regional Weather Roundup
Issued by NWS

Home | Current Version | Previous Version | Graphics & Text | Print | Product List | Glossary On
Versions: 1 2 3 4 5 6 7 8 9 10 11 12 13 14 15 16 17 18 19 20 21 22 23 24 25 26 27 28 29 30 31 32 33 34 35 36 37 38 39 40 41 42 43 44 45 46 47 48 49 50
826
ASUS43 KMPX 261610
RWRMN
WEATHER ROUNDUP FOR MINNESOTA
NATIONAL WEATHER SERVICE TWIN CITIES/CHANHASSEN MN
1100 AM CDT WED APR 26 2017


NOTE: "FAIR" INDICATES FEW OR NO CLOUDS BELOW 12,000 FEET WITH NO
SIGNIFICANT WEATHER AND/OR OBSTRUCTIONS TO VISIBILITY. N/A MEANS
CURRENT SKY AND/OR WEATHER CONDITIONS ARE NOT AVAILABLE.

MNZ060>063-068>070-261700-
   Twin Cities Metro

CITY           SKY/WX    TMP DP  RH WIND       PRES   REMARKS
TWIN CITIES    CLOUDY    37  33  85 N13       29.52R
ST PAUL        CLOUDY    37  35  92 N14G20    29.52R
CRYSTAL        CLOUDY    37  32  82 N15       29.52R
BLAINE         LGT RAIN  37  37 100 N12       29.51S
LAKEVILLE      CLOUDY    36  36 100 N14       29.51R
EDEN PRAIRIE   CLOUDY    38  34  85 N14G24    29.51S
SOUTH ST PAUL  CLOUDY    37  37 100 N10G17    29.51R
LAKE ELMO      DRIZZLE   37  36  93 N7        29.51R
$$
MNZ001>005-007-008-013>017-022>024-027-028-261700-
   Northwest Minnesota

CITY           SKY/WX    TMP DP  RH WIND       PRES   REMARKS
BEMIDJI        LGT SNOW  26  22  87 N13       29.70S WCI  14
HALLOCK        CLOUDY    30  23  74 NE13      29.87F WCI  20
ROSEAU         CLOUDY    28  23  80 NE20      29.85R WCI  15
WARROAD        CLOUDY    28  23  80 NE20G28   29.85S WCI  15
THIEF RVR FALL FLURRIES  28  23  81 NE17G26   29.79F WCI  16
CROOKSTON      LGT SNOW  28  27  93 NE16G22   29.81F VSB 1   WCI  17
FOSSTON        LGT SNOW  25  23  93 N17G24    29.74F WCI  11
DETROIT LAKES  LGT SNOW  28  27  93 N6        29.69F WCI  22
MOORHEAD       LGT RAIN  28  25  86 N9        29.75F WCI  20
PARK RAPIDS    LGT SNOW  27  20  75 N14       29.66S WCI  16
MAHNOMEN       FLURRIES  26  24  90 N7        29.72S WCI  19
$$
MNZ006-009>011-018-025>026-261700-
   North Central Minnesota

CITY           SKY/WX    TMP DP  RH WIND       PRES   REMARKS
BAUDETTE       LGT SNOW  26  21  81 NE15      29.80S WCI  14
FLAG ISLAND    CLOUDY    27  21  80 NE23G32   29.86S WCI  12
INTL FALLS     LGT SNOW  25  19  78 NE20G26   29.76F VSB 3/4 WCI  11
WASKISH        LGT SNOW  27  23  86 NE14G21   29.74F WCI  15
BIG FORK       LGT SNOW  27  21  80 N8G18     29.70S WCI  18
LONGVILLE      MIX PCPN  28  25  86 N7        29.65S WCI  21
GRAND RAPIDS   LGT SNOW  27  24  89 N12G21    29.66S FOG     WCI  17
CRANE LAKE     LGT SNOW  25  21  86 NE9       29.74F WCI  15
ORR            LGT SNOW  25  19  80 N5        29.67S WCI  19
COOK           LGT SNOW  25  21  86 N9        29.67F WCI  15
WALKER         FLURRIES  26  22  87 N8        29.68S WCI  17
$$
MNZ012-019>021-037-261700-
   Northeast Minnesota

CITY           SKY/WX    TMP DP  RH WIND       PRES   REMARKS
DULUTH         LGT SNOW  32  30  92 NE15G23   29.57S FOG     WCI  22
ELY            LGT SNOW  27  25  93 NE12G23   29.63F WCI  16
HIBBING        MIX PCPN  26  25  96 N13       29.63S FOG     WCI  15
EVELETH        MIX PCPN  28  24  86 N9        29.63S WCI  19
DULUTH HARBOR  MIX PCPN  34  32  93 NE26G32   29.60S WCI  21
TWO HARBORS    LGT SNOW  36  30  80 NE9       29.57F
SILVER BAY     MIX PCPN  34  32  93 NE5       29.57F WCI  30
GRAND MARAIS     N/A     33  29  85 NE13G20   29.61S WCI  24
G MARAIS ARPRT LGT SNOW  27  21  80 N6        29.56F WCI  20
$$
MNZ029>031-032-039>041-046>048-054>057-064-261700-
   West Central Minnesota

CITY           SKY/WX    TMP DP  RH WIND       PRES   REMARKS
FERGUS FALLS   CLOUDY    30  27  86 N13G22    29.68S WCI  20
WHEATON        CLOUDY    30  27  86 N17G24    29.71F WCI  18
MORRIS         PTSUNNY   34  30  86 N14G23    29.64S FOG     WCI  24
ALEXANDRIA     CLOUDY    31  29  92 N16       29.64R FOG     WCI  20
ELBOW LAKE     CLOUDY    32  29  87 N12       29.67S WCI  23
WADENA         LGT SNOW  27  25  93 N6        29.65S WCI  20
GLENWOOD       CLOUDY    32  30  93 N9G16     29.63R WCI  24
APPLETON       CLOUDY    36  34  93 N16       29.65S
BENSON         CLOUDY    37  30  75 N15       29.65S HAZE
ORTONVILLE     CLOUDY    32  28  86 N17G25    29.67S WCI  21
MADISON        CLOUDY    36  36 100 N20G25    29.66S
WILLMAR        CLOUDY    36  36 100 N16       29.62S
$$
MNZ033>034-036-042>043-049>051-058-059-261700-
   Central Minnesota

CITY           SKY/WX    TMP DP  RH WIND       PRES   REMARKS
ST CLOUD       CLOUDY    34  32  92 N13G21    29.57R WCI  25
SAUK CENTRE    CLOUDY    32  29  90 N16       29.62R WCI  21
PAYNESVILLE    CLOUDY    34  34 100 N15       29.61R WCI  24
AITKIN         MIX PCPN  32  27  80 N9        29.59S WCI  24
PINE RIVER     LGT SNOW  28  27  93 N9        29.67S WCI  20
BRAINERD       FRZ RAIN  31  29  92 N13       29.61F FOG     WCI  21
STAPLES        MIX PCPN  28  27  93 CALM      29.64S
LONG PRAIRIE   CLOUDY    32  30  93 CALM      29.63R FOG
LITTLE FALLS   CLOUDY    32  30  93 NW8G16    29.61R WCI  25
LITCHFIELD     CLOUDY    36  34  93 N16       29.58R
BUFFALO        CLOUDY    36  32  87 N12G18    29.56R
MAPLE LAKE     CLOUDY    37  36  94 N12       29.57R
HUTCHINSON     CLOUDY    37  36  94 NW13G22   29.58R FOG
$$
MNZ037-044-045-052-053-261700-
   East Central Minnesota

CITY           SKY/WX    TMP DP  RH WIND       PRES   REMARKS
PRINCETON      LGT RAIN  36  34  93 N12G17    29.56R
MORA           LGT SNOW  32  30  93 NE6       29.57S WCI  26
CAMBRIDGE      LGT RAIN  37  34  87 N7        29.52S
RUSH CITY      RAIN      35  33  92 N13G18    29.53S WCI  26
MOOSE LAKE     FLURRIES  32  30  93 NE13      29.56R WCI  22
HINCKLEY       LGT RAIN  34  32  93 N16G23    29.54S WCI  23
CLOQUET        LGT SNOW  32  30  93 N3        29.57S VSB 3/4
MCGREGOR       CLOUDY    32  30  93 N10       29.60S WCI  24
$$
MNZ071>073-080-081-089-090-097-098-261700-
   Southwest Minnesota

CITY           SKY/WX    TMP DP  RH WIND       PRES   REMARKS
MONTEVIDEO     CLOUDY    36  36 100 N17G24    29.63S
GRANITE FALLS  CLOUDY    37  34  89 NW16G24   29.64S
CANBY          CLOUDY    34  33  95 W17       29.67S WCI  23
MARSHALL       CLOUDY    34  33  96 N22       29.62F WCI  22
REDWOOD FALLS  CLOUDY    37  32  82 N13G22    29.59S
OLIVIA         CLOUDY    36  32  87 N18       29.59S
PIPESTONE      CLOUDY    34  28  80 N17G26    29.61F WCI  23
WINDOM         FAIR      36  36 100 NW23      29.58S FOG
WORTHINGTON    CLOUDY    35  33  92 NW21G26   29.60R WCI  24
JACKSON        CLOUDY    36  34  93 NW22G31   29.58R
TRACY          CLOUDY    35  34  97 NW20G26   29.61F FOG     WCI  24
SLAYTON        CLOUDY    32  32  99 NW18G25   29.61S FOG     WCI  21
$$
MNZ065>067-074>077-082>085-091>093-261700-
   South Central Minnesota

CITY           SKY/WX    TMP DP  RH WIND       PRES   REMARKS
MANKATO        CLOUDY    37  34  89 N17G23    29.55R
NEW ULM        CLOUDY    37  34  87 NW17      29.57R
ST JAMES       CLOUDY    39  36  87 NW23G30   29.57R
FAIRMONT       CLOUDY    38  35  89 N18       29.56R
GLENCOE        CLOUDY    36  36 100 N13G21    29.56R
FARIBAULT      CLOUDY    37  36  93 NW9       29.52R
OWATONNA       DRIZZLE   37  36  93 NW14      29.52R
WASECA         CLOUDY    36  34  93 NW16      29.55R
ALBERT LEA     CLOUDY    37  37 100 NW10G17   29.50R
$$
MNZ078>079-086>088-094>096-261700-
   Southeast Minnesota

CITY           SKY/WX    TMP DP  RH WIND       PRES   REMARKS
ROCHESTER      LGT RAIN  39  39 100 NW18      29.45R
RED WING       DRIZZLE   39  36  87 NW7       29.48R
STANTON        CLOUDY    38  35  89 N12       29.49R
DODGE CENTER   CLOUDY    37  36  93 NW15G21   29.48R
WINONA         LGT RAIN  43  41  93 NW9       29.44R
AUSTIN         CLOUDY    39  37  93 NW20      29.49R FOG
PRESTON        CLOUDY    42  40  95 NW12G20   29.45R FOG
$$
ABBREVIATIONS USED IN REMARKS
   TC - TEMPERATURES IN CELSIUS
  WCI - WIND CHILL INDEX
   HX - HEAT INDEX
  VSB - VISIBILITY
$$




USA.gov is the U.S. government's official web portal to all federal, state and local government web resources and services.